Location: Newark
(44.3867°N, 6.6531°E)
Time: 21:07:32
(UTC+00:00)

Envisat - Pass Details

Date: 28 January 2020
Orbit: 764 x 766 km, 98.1° (Epoch: 23 February)

Event Time Altitude Azimuth Distance (km) Brightness Sun altitude
Rises 05:59:45 0° 16° (NNE) 3,242 6.3 -10.4°
Reaches altitude 10° 06:02:06 10° 21° (NNE) 2,311 5.6 -10.0°
Maximum altitude 06:07:08 58° 100° (E) 888 3.8 -9.1°
Drops below altitude 10° 06:12:07 10° 180° (S) 2,294 5.7 -8.2°
Sets 06:14:26 0° 184° (S) 3,215 6.4 -7.8°
